AirNav   Bose ProFlight Aviation Headset
 
 795 users online  

KLDJ Linden Airport
Linden, New Jersey, USA

GOING TO LINDEN?


FAA INFORMATION EFFECTIVE 08 NOVEMBER 2018

Location

FAA Identifier: LDJ
Lat/Long: 40-37-02.8000N / 074-14-40.5000W
40-37.046667N / 074-14.675000W
40.6174444 / -74.2445833
(estimated)
Elevation: 22 ft. / 6.7 m (surveyed)
Variation: 13W (2000)
From city: 1 mile SE of LINDEN, NJ
Time zone: UTC -5 (UTC -4 during Daylight Saving Time)
Zip code: 07036

Airport Operations

Airport use: Open to the public
Activation date: 10/1942
Control tower: no
ARTCC: NEW YORK CENTER
FSS: MILLVILLE FLIGHT SERVICE STATION
NOTAMs facility: MIV (NOTAM-D service available)
Attendance: OCT-APR 0830-1800, MAY-SEP 0700-2030
Pattern altitude: 799 ft. MSL
Wind indicator: lighted
Segmented circle: yes
Lights: ACTVT MIRL RY 09/27; VASI RYS 09 & 27; AND REILS RYS 09 & 27- CTAF.
Beacon: white-green (lighted land airport)
Operates sunset to sunrise.
Landing fee: yes

Airport Communications

CTAF/UNICOM: 123.0
WX AWOS-3: 124.025 (908-862-7383)
NEW YORK APPROACH: 135.35
NEW YORK DEPARTURE: 119.2 126.7
CLEARANCE DELIVERY: 127.25
WX ASOS at EWR (6 nm NE): PHONE 973-621-2892
WX AWOS-3PT at JRB (12 nm NE): 128.175 (212-425-1534)
WX AWOS-3 at MMU (13 nm NW): PHONE 973-290-0135
WX ASOS at CDW (16 nm N): 135.5 (973-575-4417)
WX ASOS at TEB (16 nm NE): 132.025 (201-393-0855)
WX ASOS at SMQ (19 nm W): 120.6 (908-722-2139)
WX ASOS at LGA (19 nm NE): PHONE 718-672-6317
  • CLEARANCE DELIVERY PRVDD ON FREQ 127.25 BY NEWARK ATCT, OR CTC NEW YORK APCH AT 800-645-3206.

Nearby radio navigation aids

VOR radial/distance  VOR name  Freq  Var
CRIr282/16.0CANARSIE VOR/DME112.3011W
TEBr222/16.2TETERBORO VOR/DME108.4011W
COLr359/18.8COLTS NECK VOR/DME115.4011W
LGAr252/19.8LA GUARDIA VOR/DME113.1012W
JFKr280/21.6KENNEDY VOR/DME115.9012W
SBJr095/22.7SOLBERG VOR/DME112.9010W
RBVr035/27.4ROBBINSVILLE VORTAC113.8010W
BWZr123/28.4BROADWAY VOR/DME114.2011W
SAXr165/30.1SPARTA VORTAC115.7011W
STWr140/36.3STILLWATER VOR/DME109.6011W
ARDr064/37.3YARDLEY VOR/DME108.2010W
GXUr036/39.9MC GUIRE VORTAC110.6012W

 
NDB name  Hdg/Dist  Freq  Var  ID
CHATHAM144/11.225413WCAT -.-. .- -
TORBY216/12.321412WTE - .
LAKEHURST018/34.639611WNEL -. . .-..
BABYLON279/39.327514WBBN -... -... -.

Airport Services

Fuel available: 100LL JET-A
Parking: hangars and tiedowns
Airframe service: MINOR
Powerplant service: MINOR
Bottled oxygen: NONE
Bulk oxygen: NONE

Runway Information

Runway 9/27

Dimensions: 4140 x 100 ft. / 1262 x 30 m
Surface: asphalt, in good condition
Weight bearing capacity: 
Single wheel: 31.5
Double wheel: 42.0
Runway edge lights: medium intensity
RUNWAY 9  RUNWAY 27
Latitude: 40-36.962665N40-37.131277N
Longitude: 074-15.109088W074-14.242215W
Elevation: 21.9 ft.17.9 ft.
Gradient: 0.1%0.1%
Traffic pattern: leftleft
Runway heading: 089 magnetic, 076 true269 magnetic, 256 true
Displaced threshold: 462 ft.541 ft.
Markings: nonprecision, in fair conditionbasic, in fair condition
Visual slope indicator: 4-box VASI on right (3.80 degrees glide path)
VASI IS BAFFLED TO CUT OFF THE LGT BEAM AT 6 DEGS EACH SIDE OF RY CNTRLN EXTDD; TOTAL USBL WIDTH IS 12 DEGS.
4-box VASI on left (3.25 degrees glide path)
Runway end identifier lights: yesyes
Touchdown point: yes, no lightsyes, no lights
Obstructions: 32 ft. pole, 352 ft. from runway, 30 ft. right of centerline, 4:1 slope to clear
APCH RATIO 25:1 TO DSPLCD THLD BASED ON 32 FT POLE 812 FT FM DSPLCD THLD.
47 ft. ant, 554 ft. from runway, 100 ft. right of centerline, 7:1 slope to clear
APCH RATIO23:1 TO DSPLCD THLD BASED ON 47 FT ANTENNA 1097 FT FM DSPLCD THLD.

Airport Ownership and Management from official FAA records

Ownership: Publicly-owned
Owner: CITY OF LINDEN
1101 WEST EDGAR RD
LINDEN, NJ 07036
Phone 908-862-5557
Manager: PAUL DUDLEY
1101 WEST EDGAR RD
LINDEN, NJ 07036
Phone 908-862-5557

Airport Operational Statistics

Aircraft based on the field: 62
Single engine airplanes: 42
Multi engine airplanes: 5
Jet airplanes: 1
Helicopters: 14
    
Aircraft operations: avg 147/day *
61% local general aviation
38% transient general aviation
<1% military
* for 12-month period ending 31 March 2018

Additional Remarks

TPA 800 FT MSL; RY 9 ENTER TFC PAT UPWIND - ENTRIES OTR RYS STD.
MAIN NORTH TWY CLSD INDEFLY.
DEER & BIRDS ON & INVOF APRT.
DEPG RY 27 DEP STRAIGHT OUT TO 800 FT.
NOISE ABATEMENT PROCEDURES IN EFFECT.
BIRDS ON & INVOF ARPT.
TOUCH & GO LANDINGS FOR BASE ASSIGNED ACFT; ALL OTHERS CTC AMGR (908) 862-8800 FOR PPR.
RY 09/27 RWY SHOULDER MARKINGS NSTD.
MAIN NORTH TWY CLSD INDEFLY.

Instrument Procedures

NOTE: All procedures below are presented as PDF files. If you need a reader for these files, you should download the free Adobe Reader.

NOT FOR NAVIGATION. Please procure official charts for flight.
FAA instrument procedures published for use from 8 November 2018 at 0901Z to 6 December 2018 at 0900Z.

 
STARs - Standard Terminal Arrivals
JAIKE THREE (RNAV)   download (204KB)
MAZIE TWO (RNAV)   download (154KB)
WILKES-BARRE FOUR   download (200KB)
 
IAPs - Instrument Approach Procedures
GPS-A   download (193KB)
NOTE: Special Take-Off Minimums/Departure Procedures apply   download (150KB)

Other nearby airports with instrument procedures:

KEWR - Newark Liberty International Airport (6 nm NE)
KJRB - Downtown Manhattan/Wall Street Heliport (12 nm NE)
KMMU - Morristown Municipal Airport (13 nm NW)
KJRA - West 30th St Heliport (14 nm NE)
6N5 - East 34th Street Heliport (14 nm NE)
KCDW - Essex County Airport (16 nm N)
KTEB - Teterboro Airport (16 nm NE)
47N - Central Jersey Regional Airport (17 nm W)
3N6 - Old Bridge Airport (18 nm S)
KSMQ - Somerset Airport (19 nm W)
 
Loc | Ops | Rwys | IFR | FBO | Links
Com | Nav | Svcs | Stats | Notes


 
Area around KLDJ (Linden Airport)
 
Road maps at: MapQuest Bing Google
 
Aerial photo
WARNING: Photo may not be current or correct
Aerial photo of KLDJ (Linden Airport)
Photo by AirNav, LLC
Photo taken 14-Sep-2013
looking west.

Do you have a better or more recent aerial photo of Linden Airport that you would like to share? If so, please send us your photo.

 
Sectional chart

 
Airport distance calculator
Flying to Linden Airport? Find the distance to fly.

From to KLDJ

Sunrise and sunset
Times for 17-Nov-2018
 Local
(UTC-5)
 Zulu
(UTC)
Morning civil twilight06:1711:17
Sunrise06:4711:47
Sunset16:3721:37
Evening civil twilight17:0622:06

Current date and time
Zulu (UTC)  18-Nov-2018 02:39:30
Local (UTC-5)  17-Nov-2018 21:39:30
 
METAR
KLDJ 180215Z AUTO 29006KT 10SM OVC045 06/M01 A3029 RMK AO2 T00601010
KEWR 
5nm NE 
180151Z 25008KT 10SM BKN045 06/M01 A3027 RMK AO2 SLP248 T00611011
KJRB 
12nm NE 
180156Z AUTO 26007KT 10SM OVC043 07/01 A3027 RMK AO2 SLP250 T00720006
KMMU 
13nm NW 
180145Z 24006KT 10SM BKN040 OVC046 06/00 A3027
KCDW 
16nm N 
180153Z 00000KT 10SM OVC040 05/M01 A3027 RMK AO2 SLP257 T00501006
KNYC 
16nm NE 
180151Z AUTO 10SM OVC041 07/M01 A3028 RMK AO2 SLP245 T00671006 $
KTEB 
17nm NE 
180151Z 26004KT 10SM OVC045 07/00 A3026 RMK AO2 SLP245 T00670000
KLGA 
19nm NE 
180151Z 27011KT 10SM BKN043 08/M02 A3026 RMK AO2 SLP245 T00781017
KSMQ 
19nm W 
ASOS 120.60 908-722-2139
180153Z AUTO 00000KT 10SM OVC046 05/M01 A3027 RMK AO2 SLP251 T00501011
TAF
KEWR 
5nm NE 
172005Z 1720/1824 27012G18KT P6SM BKN045 FM172200 27010KT P6SM BKN045 FM180200 29008KT P6SM SCT045 FM180500 31006KT P6SM FEW045 SCT120 FM180800 35005KT P6SM BKN120 FM181200 02004KT P6SM BKN100 FM181600 VRB04KT P6SM SCT060 BKN100 FM181900 16006KT P6SM BKN040
KTEB 
17nm NE 
172005Z 1720/1824 28009G16KT P6SM BKN045 FM172200 28008KT P6SM BKN045 FM180200 29006KT P6SM SCT045 FM180500 31004KT P6SM FEW045 SCT120 FM180800 34003KT P6SM BKN120 FM181200 VRB03KT P6SM SCT060 BKN100 FM181900 16006KT P6SM BKN040
KLGA 
19nm NE 
172005Z 1720/1824 29012G17KT P6SM BKN045 FM172200 29010KT P6SM BKN045 FM180300 30009KT P6SM SCT045 FM180500 31007KT P6SM FEW045 SCT120 FM180800 34005KT P6SM BKN120 FM181200 02005KT P6SM BKN100 FM181500 06006KT P6SM SCT060 BKN100 FM181900 VRB05KT P6SM SCT050 BKN100 FM182100 16006KT P6SM BKN040
NOTAMs
Click for the latest NOTAMs
NOTAMs are issued by the DoD/FAA and will open in a separate window not controlled by AirNav.

 

 
 

FBO, Fuel Providers, and Aircraft Ground Support

  
 Business Name 
 
 Contact 
 
 Services / Description 
 
Fuel Prices
 
Comments
  
Linden Air Services 908-862-5557
no information available

If you are affiliated with Linden Air Services and would like to show here your services, contact info, web link, logo, and more, click here
100LL Jet A
FS $6.90 $6.88 
 Updated 14-Nov-2018
 
   3 read write
FS=Full service
Update Fuel Prices
 

Aviation Businesses, Services, and Facilities

  
 Business Name 
 
 Contact 
 
 Services / Description 
 
Distance
 
Comments
  
Richmond Pilots 718-946-9535
718-987-5862
[web site]
[email]
Flying club

More info about Richmond Pilots
on airport  
   write
 

Would you like to see your business listed on this page?

 If your business provides an interesting product or service to pilots, flight crews, aircraft, or users of the Linden Airport, you should consider listing it here.  To start the listing process, click on the button below
 
Add a business
 

Other Pages about Linden Airport

www.lindenairportnj.com
 
Update a link
 
Copyright © AirNav, LLC. All rights reserved. Privacy Policy  Contact